星链-11524 (STARLINK-11524)

导读 | 豆包AI

STARLINK-11524是美国太空探索技术公司(SpaceX)星链卫星互联网项目的卫星,于2025年1月27日发射升空,归属美国。作为星链星座扩容的组成部分,它主要为全球范围内用户提供低延迟、高速率的宽带互联网接入服务,依托近地轨道部署,推进星链网络全球覆盖的建设进程。

基本信息
目录编号:
62839
目录名称:
STARLINK-11524
国际标识:
2025-019L
轨道中心:
EARTH
卫星名称:
星链-11524
卫星全名:
星链-11524 (STARLINK-11524)
卫星状态:
在轨 (已飞行412 天)
发射日期:
2025-01-27 UTC
国别 :
美国 (US)
星等 :
--
轨道信息
数据来源 国际轨道数据
星历时间: 2026-03-14T21:37:14+0800
12小时前
查看轨道信息
半长轴: 6734.03km
偏心率: 0.000174
轨道倾角: 42.998°
近地点辐角 221.424°
升交点赤经 276.959°
平近点角 138.650°
近地点: 354.721km
远地点: 357.065km
周期: 91.658分钟
每日圈数: 15.710509
详细信息
固有亮度:
5
最大亮度:
2.5
卫星平台:
Starlink V1.0
覆盖范围:
全球
运营商:
太空探索技术公司
运营商所在国:
美国
制造商(研发单位):
太空探索技术公司
制造商所在国:
美国
使用方式:
暂无
卫星简介
Starlink 计划是 SpaceX 推出的全球卫星互联网项目,通过发射低轨道卫星,为全球尤其是偏远地区提供高速、低延迟的互联网服务。自 2019 年起,Starlink 已部署数千颗卫星,旨在缩小全球数字鸿沟,推动互联网普及。该项目还为军事、航空等行业提供通信支持,带来广泛经济效益。
2D轨道图
3D轨道图
轨道高度分析图
轨道倾角分析图
轨道综合分析图
查看轨道综合分析图